Location: Bruderhein
(53.8035°N, 112.9265°W)
Time: 07:59:46
(UTC+00:00)

RS-15 - Pass Details

Date: 04 April 2023
Orbit: 1885 x 2159 km, 64.8° (Epoch: 29 May)

Event Time Altitude Azimuth Distance (km) Brightness Sun altitude
Rises 03:15:50 0° 285° (WNW) 5,687 12.6 -9.9°
Reaches altitude 10° 03:19:34 10° 291° (WNW) 4,674 11.6 -10.4°
Maximum altitude 03:31:28 51° 6° (N) 2,539 8.8 -12.0°
Drops below altitude 10° 03:42:54 10° 81° (E) 4,503 9.5 -13.5°
Enters shadow 03:44:26 - 84° (E) 4,923 9.7 -13.7°
